AO-07 1 07530U 74089B 17222.51429956 -.00000034 00000-0 67238-4 0 9996 2 07530 101.6352 190.1390 0011669 215.7465 256.7956 12.53628129955436 UO-11 1 14781U 84021B 17222.55366381 .00000067 00000-0 14517-4 0 9992 2 14781 097.6928 266.2523 0009164 031.0183 329.1570 14.82916025777406 LO-19 1 20442U 90005G 17222.40220779 -.00000005 00000-0 14406-4 0 9996 2 20442 098.5769 158.3709 0011680 353.8040 006.2998 14.32866170439389 HUBBLE 1 20580U 90037B 17222.59010226 .00000437 00000-0 15936-4 0 9995 2 20580 028.4705 008.0265 0002901 041.2518 054.5806 15.08812592298421 MET-2/21 1 22782U 93055A 17222.46987074 .00000061 00000-0 42228-4 0 9991 2 22782 082.5520 340.5044 0021069 279.1406 154.4590 13.83802720208936 AO-27 1 22825U 93061C 17219.76035384 -.00000017 00000-0 11074-4 0 9990 2 22825 098.8166 185.9887 0008401 173.4281 186.7012 14.30002143244771 IO-26 1 22826U 93061D 17221.45845017 -.00000011 00000-0 13505-4 0 9997 2 22826 098.8111 187.7844 0009210 159.3995 200.7560 14.30331478244949 FO-29 1 24278U 96046B 17222.58736021 -.00000020 00000-0 15690-4 0 9992 2 24278 098.5553 098.5907 0350096 196.2897 162.6755 13.53077142035983 NOAA-15 1 25338U 98030A 17222.60101134 .00000019 00000-0 26679-4 0 9995 2 25338 098.7815 233.6191 0011492 053.0466 307.1764 14.25810223000508 GO-32 1 25397U 98043D 17222.45342145 -.00000018 00000-0 11111-4 0 9991 2 25397 098.6121 163.6540 0001295 148.4970 211.6286 14.23626050991295 ISS 1 25544U 98067A 17222.57402890 .00009057 00000-0 14378-3 0 9996 2 25544 051.6413 127.2019 0005898 123.6949 299.0948 15.54144726070218 NO-44 1 26931U 01043C 17222.50399482 -.00000032 00000-0 19477-4 0 9991 2 26931 067.0524 311.0514 0007181 258.4319 101.5976 14.30468743828042 SO-50 1 27607U 02058C 17222.50194979 -.00000020 00000-0 17469-4 0 9999 2 27607 064.5567 319.5843 0030581 068.6341 291.8020 14.75346050786991 CO-55 1 27844U 03031E 17222.46419608 .00000035 00000-0 35607-4 0 9997 2 27844 098.6896 230.6811 0009571 183.3708 176.7407 14.22051417731994 CO-57 1 27848U 03031J 17222.47869218 .00000020 00000-0 29080-4 0 9990 2 27848 098.6988 230.9771 0009295 193.1075 166.9863 14.21664539731886 RS-22 1 27939U 03042A 17222.62052920 .00000044 00000-0 16290-4 0 9999 2 27939 097.9468 005.6288 0014130 057.3642 001.3909 14.66584796741156 NOAA-18 1 28654U 05018A 17222.60390465 -.00000028 00000-0 10090-4 0 9991 2 28654 099.1802 246.1416 0013260 279.9708 079.9966 14.12344544629841 CO-58 1 28895U 05043F 17222.39452460 .00000087 00000-0 25491-4 0 9991 2 28895 097.8708 022.2049 0016192 336.7175 023.3293 14.63418140628182 Falconsat-3 1 30776U 07006E 17222.63003389 .00001575 00000-0 50653-4 0 9993 2 30776 035.4365 081.1656 0002055 091.3550 268.7411 15.32513576576615 CO-65 1 32785U 08021C 17222.44636510 .00000189 00000-0 26251-4 0 9997 2 32785 097.5644 244.2354 0012884 355.9519 004.1592 14.87919849502891 AAUSAT2 1 32788U 08021F 17222.55491498 .00000295 00000-0 32881-4 0 9990 2 32788 097.5553 256.4818 0010679 314.0868 045.9473 14.93929495503691 DO-64 1 32789U 08021G 17222.41300280 .00000747 00000-0 56886-4 0 9997 2 32789 097.5557 279.4948 0010892 277.5518 082.4471 15.05020356504920 CO-66 1 32791U 08021J 17222.36254821 .00000345 00000-0 40966-4 0 9999 2 32791 097.5607 248.6867 0012775 339.6377 020.4330 14.90266103503135 RS-30 1 32953U 08025A 17222.44955287 .00000004 00000-0 -40460-4 0 9998 2 32953 082.5015 205.9097 0019164 162.8935 197.2795 12.43078449418164 PRISM 1 33493U 09002B 17222.48561832 .00000389 00000-0 40610-4 0 9999 2 33493 098.1615 107.1931 0014141 264.8446 095.1162 14.95734082463898 NOAA-19 1 33591U 09005A 17222.61166839 .00000085 00000-0 71254-4 0 9995 2 33591 099.0972 190.2238 0014910 117.0366 243.2329 14.12200950438074 TISAT-1 1 36799U 10035E 17222.59160839 .00000237 00000-0 30357-4 0 9992 2 36799 098.0681 346.4400 0013360 143.6641 216.5486 14.90441485383687 JUGNU 1 37839U 11058B 17222.12920560 .00000302 00000-0 19139-4 0 9996 2 37839 019.9610 123.4016 0018996 058.4223 091.0454 14.12588844301228 SRMSAT 1 37841U 11058D 17222.19510083 .00000285 00000-0 11381-4 0 9992 2 37841 019.9709 165.7975 0011650 314.9015 177.9212 14.10579922300828 AO-71 1 37854U 11061E 17222.53027811 .00001140 00000-0 68864-4 0 9999 2 37854 101.6957 123.7912 0166925 274.1562 084.0588 15.04248761314659 HRBE 1 37855U 11061F 17222.31140070 .00000912 00000-0 55930-4 0 9995 2 37855 101.7091 121.2317 0179969 281.6677 076.4387 15.03215208314453 ALMASAT-1 1 38078U 12006B 17222.60669735 .00020013 37594-5 21949-3 0 9998 2 38078 069.4417 345.7102 0305819 211.0863 147.1910 15.23646562293072 HORYU-2 1 38340U 12025D 17222.47972630 .00000161 00000-0 31823-4 0 9999 2 38340 098.3772 228.3164 0012878 116.4566 243.7965 14.75366597270881 RS-40 1 38735U 12041C 17222.55920914 .00000029 00000-0 14069-3 0 9997 2 38735 082.4763 290.2848 0015573 268.9760 090.9535 12.42574933228429 BEESAT-3 1 39134U 13015E 17222.57345709 .00000975 00000-0 56941-4 0 9994 2 39134 064.8635 050.8923 0038406 255.2543 104.4326 15.17932689237359 BEESAT-2 1 39136U 13015G 17222.36623301 .00000858 00000-0 55349-4 0 9991 2 39136 064.8697 063.0125 0033877 274.5205 085.2050 15.15198271237095 ZACUBE-1 1 39417U 13066B 17222.55909258 .00000195 00000-0 31028-4 0 9990 2 39417 097.6253 262.1534 0060902 092.1832 268.6356 14.80737484200827 TRITON-1 1 39427U 13066M 17222.46614520 .00000137 00000-0 29867-4 0 9990 2 39427 097.6374 234.1864 0114496 174.1244 186.1337 14.67483840198810 GOMX-1 1 39430U 13066Q 17222.49256491 .00000137 00000-0 34212-4 0 9996 2 39430 097.6672 217.3968 0150614 231.2072 127.5598 14.58894451197663 LO-74 1 39440U 13066AA 17222.56619877 .00000190 00000-0 33425-4 0 9990 2 39440 097.6257 250.9127 0082131 123.4317 237.4782 14.75477368198913 AO-73 1 39444U 13066AE 17222.57930650 .00000238 00000-0 35934-4 0 9990 2 39444 097.6269 263.2963 0060073 088.8088 272.0007 14.81476715199070 SPROUT 1 39770U 14029E 17222.49406084 .00000577 00000-0 71667-4 0 9991 2 39770 097.8748 321.3390 0010171 142.9609 217.2306 14.86305702174204 DUCHIFAT-1 1 40021U 14033M 17222.56330056 .00000378 00000-0 45099-4 0 9999 2 40021 097.9152 135.8018 0014329 118.4033 241.8631 14.89934571170696 NANOSATCBR1 1 40024U 14033Q 17222.59009049 .00000274 00000-0 34864-4 0 9993 2 40024 097.9108 134.6300 0013584 119.5566 240.7007 14.89253895170122 EO-79 1 40025U 14033R 17222.32988351 .00000213 00000-0 28960-4 0 9990 2 40025 097.9088 133.3309 0013755 123.3769 236.8766 14.88451241170035 DTUSAT-2 1 40030U 14033W 17222.28157838 .00000216 00000-0 29582-4 0 9993 2 40030 097.9052 132.3402 0013274 118.2074 242.0484 14.88073413169982 EO-80 1 40032U 14033Y 17222.52790010 .00000214 00000-0 29365-4 0 9994 2 40032 097.9058 132.5916 0013237 118.0847 242.1709 14.88008248170007 ANTELSAT 1 40034U 14033AA 17222.60158004 .00000181 00000-0 34539-4 0 9998 2 40034 097.8517 104.8275 0060284 117.1529 243.5844 14.73722729168406 VELOX-1 1 40057U 14034E 17222.55710632 .00000304 00000-0 50602-4 0 9995 2 40057 098.1920 323.6011 0009813 239.1881 120.8362 14.77157251167787 DAURIA DX 1 1 40071U 14037C 17222.51834652 .00000077 00000-0 17345-4 0 9993 2 40071 098.3425 335.7589 0007325 234.5438 125.5087 14.81033361167014 UKUBE-1 1 40074U 14037F 17222.52116661 .00000299 00000-0 43473-4 0 9997 2 40074 098.3516 339.8957 0003627 223.3494 136.7436 14.83534192167237 HODOYOSHI-1 1 40299U 14070B 17222.49188272 .00000737 00000-0 34949-4 0 9991 2 40299 097.4028 304.4069 0011512 261.8837 221.7530 15.22331239153209 CHUBUSAT-1 1 40300U 14070C 17222.49448241 .00000643 00000-0 32102-4 0 9994 2 40300 097.3943 301.3933 0018872 271.8943 145.7486 15.20937201153044 QSAT-EOS 1 40301U 14070D 17222.59744229 .00001632 00000-0 71120-4 0 9993 2 40301 097.3877 301.6973 0025874 266.5699 227.9623 15.23361158153116 FIREBIRD FU3 1 40377U 15003B 17222.48251159 .00002479 00000-0 10822-3 0 9997 2 40377 099.1220 057.2785 0135684 182.0358 178.0335 15.15556485139223 FIREBIRD FU4 1 40378U 15003C 17222.47398294 .00002210 00000-0 96885-4 0 9996 2 40378 099.1222 057.3096 0135872 181.9729 178.0980 15.15575849139222 GRIFEX 1 40379U 15003D 17222.48062416 .00002010 00000-0 93684-4 0 9994 2 40379 099.1246 054.8678 0141672 190.2058 169.6286 15.13086946139082 NO-84 1 40654U 15025D 17221.35575412 .00005501 00000-0 10510-3 0 00483 2 40654 054.9948 358.8764 0180478 040.4952 320.9251 15.34223652007870 NO-83 1 40655U 15025E 17221.30040290 .00011553 00000-0 16991-3 0 00528 2 40655 054.9797 331.0997 0147696 056.4379 305.0517 15.44427286007889 DEORBITSAIL 1 40719U 15032E 17222.28432420 .00000315 00000-0 53038-4 0 9993 2 40719 097.9740 115.3495 0016095 334.6889 025.3530 14.76102251112303 NUDT-PHONESAT 1 40900U 15049B 17222.56681506 .00001907 00000-0 92536-4 0 9999 2 40900 097.4433 229.7236 0015175 041.7948 318.4442 15.19610719104717 XW-2A 1 40903U 15049E 17222.54845496 .00001733 00000-0 46986-4 0 9995 2 40903 097.4187 248.9190 0016532 072.6095 287.6957 15.38943328106000 XW-2C 1 40906U 15049H 17222.54821525 .00000620 00000-0 37062-4 0 9994 2 40906 097.4555 226.9552 0016129 032.1499 328.0713 15.14609059104463 XW-2D 1 40907U 15049J 17222.59388675 .00000666 00000-0 39408-4 0 9990 2 40907 097.4526 226.7492 0015427 030.4627 329.7498 15.14717846104470 LILACSAT-2 1 40908U 15049K 17222.57995292 .00000337 00000-0 22583-4 0 9999 2 40908 097.4629 226.4595 0016935 028.6007 331.6149 15.13163293104398 XW-2F 1 40910U 15049M 17222.56400995 .00000988 00000-0 55319-4 0 9997 2 40910 097.4544 227.4907 0016194 027.9492 332.2607 15.15633585104510 XW-2B 1 40911U 15049N 17222.60135837 .00000652 00000-0 38713-4 0 9990 2 40911 097.4568 227.1600 0015343 030.8204 329.3926 15.14678382104371 DCBB 1 40912U 15049P 17222.49249225 .00001630 00000-0 83875-4 0 9991 2 40912 097.4516 229.4158 0016459 019.6376 132.4900 15.17750078104520 TW-1C 1 40926U 15051B 17222.41931109 .00006212 00000-0 14088-3 0 9990 2 40926 097.2262 261.5709 0010749 341.6823 145.9674 15.43377517105284 TW-1A 1 40928U 15051D 17222.55280292 .00003125 00000-0 89956-4 0 9994 2 40928 097.2233 257.3903 0012854 011.1151 144.8075 15.36438337105042 IO-86 1 40931U 15052B 17221.47126410 .00000859 00000-0 30593-4 0 9994 2 40931 005.9973 212.8086 0013762 279.3737 080.5139 14.76537699100853 GomX-3 1 40949U 98067HA 16292.18357804 .08527750 12374-4 77882-3 0 9992 2 40949 51.6055 106.7696 0006699 286.1344 73.8944 16.38002265 59645 LQSat 1 40958U 15057A 17222.59273399 .00000053 00000-0 16098-4 0 9991 2 40958 097.9756 296.9552 0016774 250.6162 109.3236 14.72976376099134 AO-85 1 40967U 15058D 17221.51251771 .00000256 00000-0 48666-4 0 00502 2 40967 064.7776 057.1238 0174670 058.2511 303.5480 14.75464490007664 ATHENOXAT-1 1 41168U 15077C 17222.12204228 .00002329 00000-0 94122-4 0 9993 2 41168 014.9850 135.3955 0012221 043.2712 094.0305 15.11707775091212 ChubuSat-2 1 41338U 16012B 17222.12903646 .00000306 00000-0 17274-4 0 9998 2 41338 031.0032 129.6644 0014101 233.5384 126.3952 14.99769209081099 ChubuSat-3 1 41339U 16012C 17222.11644946 .00000322 00000-0 18440-4 0 9997 2 41339 031.0104 128.8024 0013984 239.9710 119.9538 14.99972562081078 Horyu-4 1 41340U 16012D 17222.06639614 .00000443 00000-0 27353-4 0 9996 2 41340 031.0052 126.2454 0014414 248.2634 111.6467 15.00639230081118 OUFTI-1 1 41458U 16025C 17222.56115683 .00001823 00000-0 10003-3 0 9996 2 41458 098.1825 263.2555 0175734 107.7871 254.2610 15.03344194070756 e-st@r-II 1 41459U 16025D 17222.58805640 .00002788 00000-0 15130-3 0 9995 2 41459 098.1818 263.2187 0175703 108.2258 253.8150 15.03180093070740 AAUSAT4 1 41460U 16025E 17222.41942224 .00002188 00000-0 11950-3 0 9999 2 41460 098.1742 263.1793 0168853 106.6275 255.3558 15.04115175070748 MinXSS 1 41474U 98067HU 17125.52237589 .05724416 12300-4 86147-3 0 9995 2 41474 051.6449 208.6967 0008167 329.0747 030.9230 16.33400422055623 CADRE 1 41475U 98067HV 17003.74787607 .12518598 12537-4 55989-3 0 9998 2 41475 51.6110 110.0165 0004040 312.3134 47.7551 16.43344525 36494 NODES 1 1 41477U 98067HX 17222.63297768 .00093746 14394-4 30124-3 0 9992 2 41477 051.6235 078.4786 0002043 259.0004 101.0773 15.90947010070716 NODES 2 1 41478U 98067HY 17222.57501780 .00089389 00000-0 29238-3 0 9995 2 41478 051.6273 079.6499 0001743 251.9472 108.1344 15.89862866070691 LO-87 1 41557U 16033B 17222.39953621 .00001243 00000-0 49350-4 0 9992 2 41557 097.4613 301.9157 0014543 169.8605 190.2930 15.27187769066708 NuSat2 1 41558U 16033C 17222.50341937 .00001747 00000-0 68588-4 0 9990 2 41558 097.4640 302.0805 0014009 167.9602 192.1974 15.27006703066712 Lapan A3 1 41603U 16040E 17222.58229323 .00000207 00000-0 13040-4 0 9994 2 41603 097.4573 283.9056 0011939 242.2021 247.5057 15.19377893062911 Swayam 1 41607U 16040J 17222.60757886 .00001286 00000-0 61164-4 0 9999 2 41607 097.4565 284.3434 0012818 242.9726 117.0201 15.20945379062876 Pratham 1 41783U 16059A 17222.60784606 .00000049 00000-0 19058-4 0 9995 2 41783 098.1628 283.4063 0033358 352.5700 007.5003 14.62848930046559 AlSat 1N 1 41789U 16059G 17222.55134316 .00000068 00000-0 22153-4 0 9993 2 41789 098.1641 283.9565 0028299 347.0982 012.9499 14.64062759046560 ScatSat 1 41790U 16059H 17222.63584366 .00466044 00000-0 11195 0 0 9997 2 41790 098.1678 270.2941 0013561 335.4410 025.4953 14.50921596046159 TY-1 1 41844U 16066D 17222.46233089 .00001314 00000-0 60125-4 0 9996 2 41844 097.4054 228.7991 0017683 051.8127 109.9291 15.22156731041592 CAS-2T 1 41845U 16066E 17222.53960671 .00000231 00000-0 44602-4 0 9998 2 41845 098.7759 239.4667 0367821 086.9846 277.3357 14.37772971039301 Pegasus-1 1 41846U 16066F 17222.48191592 .00000307 00000-0 56339-4 0 9995 2 41846 098.7791 239.1553 0370491 088.5939 275.7649 14.37056145039277 STARS-C 1 41895U 98067KR 17222.24636443 .00021296 00000-0 22602-3 0 9998 2 41895 051.6372 120.6389 0004957 147.5867 212.5433 15.64014788036446 Tancredo 1 1 41931U 98067KT 17222.26766477 .00052206 00000-0 37740-3 0 9996 2 41931 051.6349 114.7303 0006312 124.4561 235.7034 15.72930728032094 TO-89 1 41932U 98067KU 17222.15240035 .00010243 00000-0 12815-3 0 9993 2 41932 051.6406 123.7942 0006187 109.9990 250.1670 15.60445909031963 AOBA-V3LOX3 1 41935U 98067KX 17222.19380483 .00011575 00000-0 14158-3 0 9993 2 41935 051.6400 123.3153 0005652 113.4562 246.7027 15.60893303032076 OSNSAT 1 41939U 98067KZ 17221.96750377 .00024752 00000-0 23836-3 0 9998 2 41939 051.6371 120.2661 0006915 116.0179 244.1529 15.66357593031343 EO-88 1 42017U 17008BX 17222.57085578 .00001376 00000-0 61309-4 0 9999 2 42017 097.4911 283.9151 0007541 042.6854 317.4967 15.23143197026766 HAVELSAT 1 42700U 98067LH 17222.13976440 .00009139 00000-0 13104-3 0 9995 2 42700 051.6394 128.1875 0006914 156.4404 203.6905 15.56933146013348 SOMP2 1 42701U 98067LJ 17222.14507472 .00009248 00000-0 13352-3 0 9998 2 42701 051.6402 128.2254 0006833 157.2225 202.9071 15.56729434013339 Columbia 1 42702U 98067LK 17222.54376970 .00021267 00000-0 27661-3 0 9993 2 42702 051.6395 125.6360 0007395 151.8416 208.2978 15.58696261013334 PHOENIX 1 42706U 98067LP 17222.14256662 .00007941 00000-0 11533-3 0 9992 2 42706 051.6399 128.2108 0002563 123.1434 236.9804 15.56810763013255 X-CubeSat 1 42707U 98067LQ 17222.14360751 .00009612 00000-0 13807-3 0 9991 2 42707 051.6396 128.2150 0002595 124.3860 235.7377 15.56825299013242 qbee 1 42708U 98067LR 17222.01722959 .00009448 00000-0 13605-3 0 9993 2 42708 051.6398 128.8711 0002671 124.0281 236.0965 15.56780761013187 ZA-AeroSat 1 42713U 98067LU 17222.54582140 .00008373 00000-0 12320-3 0 9992 2 42713 051.6399 126.4010 0003428 100.8368 259.3009 15.56368921012972 LINK 1 42714U 98067LV 17222.15465404 .00012019 00000-0 17122-3 0 9990 2 42714 051.6394 128.2866 0003685 105.0202 255.1198 15.56771774013020 UPSat 1 42716U 98067LX 17222.14262658 .00011284 00000-0 15983-3 0 9993 2 42716 051.6395 128.2081 0005216 155.4302 204.6939 15.56996058013042 SpaceCube 1 42717U 98067LY 17222.53750174 .00009445 00000-0 13659-3 0 9996 2 42717 051.6398 126.3452 0005187 157.7793 202.3425 15.56661157012349 Hoopoe 1 42718U 98067LZ 17222.34039818 .00010485 00000-0 14984-3 0 9999 2 42718 051.6400 127.2798 0005258 155.8620 204.2619 15.56845746012315 Challenger 1 42721U 98067MA 17222.34753519 .00013331 00000-0 18729-3 0 9998 2 42721 051.6395 127.3234 0008693 142.1288 218.0316 15.57012019012017 NJUST-1 1 42722U 98067MB 17222.56280625 .00007454 00000-0 11142-3 0 9997 2 42722 051.6399 126.5119 0008345 144.5175 215.6373 15.56109649012044 UNSW-EC0 1 42723U 98067MC 17222.36089505 .00010325 00000-0 14937-3 0 9996 2 42723 051.6401 127.4147 0008400 142.5763 217.5815 15.56513896011991 DUTHsat 1 42724U 98067MD 17222.16103726 .00012901 00000-0 18255-3 0 9996 2 42724 051.6396 128.3292 0007630 143.0331 217.1188 15.56858962011880 LO-90 1 42725U 98067ME 17222.56516456 .00008503 00000-0 12605-3 0 9995 2 42725 051.6401 126.5288 0007370 146.3922 213.7538 15.56127368011965 nSIGHT1 1 42726U 98067MF 17222.57848663 .00004645 00000-0 73575-4 0 9992 2 42726 051.6403 126.6183 0007205 147.7858 212.3574 15.55544783011950 QBITO 1 42728U 98067MH 17222.55570361 .00009392 00000-0 13711-3 0 9998 2 42728 051.6405 126.4682 0004523 147.3149 212.8123 15.56413141011752 Aalto-2 1 42729U 98067MJ 17222.55555137 .00009808 00000-0 14284-3 0 9991 2 42729 051.6402 126.4657 0004506 147.5054 212.6216 15.56418572011765 SUSat 1 42730U 98067MK 17222.55771902 .00009144 00000-0 13406-3 0 9991 2 42730 051.6400 126.4791 0004591 146.1655 213.9630 15.56334391011760 i-INSPIRE II 1 42731U 98067ML 17222.55205909 .00011474 00000-0 16483-3 0 9998 2 42731 051.6392 126.4356 0008610 101.1464 259.0496 15.56573503011809 PolyITAN-2-SAU 1 42732U 98067MM 17222.55402257 .00010311 00000-0 14944-3 0 9993 2 42732 051.6391 126.4487 0008561 100.7000 259.4956 15.56464278011803 SNUSAT-1 1 42733U 98067MN 17222.55863712 .00009258 00000-0 13561-3 0 9993 2 42733 051.6395 126.4801 0008423 101.8310 258.3626 15.56320932011801 ExAlta-1 1 42734U 98067MP 17222.55182240 .00010886 00000-0 15658-3 0 9992 2 42734 051.6393 126.4354 0010194 122.3359 237.8621 15.56588764011752 Aoxiang-1 1 42735U 98067MQ 17222.56133776 .00007703 00000-0 11468-3 0 9993 2 42735 051.6399 126.5014 0009040 141.7782 218.3852 15.56160560013174 BeEagleSat 1 42736U 98067MR 17222.56086172 .00008518 00000-0 12575-3 0 9996 2 42736 051.6398 126.4985 0008969 140.8190 219.3453 15.56226185011860 Atlantis 1 42737U 98067MS 17222.13861122 .00018943 00000-0 25546-3 0 9991 2 42737 051.6389 128.1762 0009358 136.7135 223.4594 15.57795895011692 CAS-4B 1 42759U 17034B 17222.59579821 .00000322 00000-0 33661-4 0 9992 2 42759 043.0194 347.9582 0008612 321.1156 154.2799 15.08939641008522 CAS-4A 1 42761U 17034D 17222.59245333 .00000238 00000-0 28404-4 0 9998 2 42761 043.0200 347.9395 0008975 323.2879 148.8815 15.09012734008515 UCLSat 1 42765U 17036A 17222.10826044 .00001154 00000-0 55446-4 0 9999 2 42765 097.4459 281.3151 0013837 087.1960 273.0859 15.20774205007417 NIUSat 1 42766U 17036B 17222.60864979 .00000963 00000-0 48396-4 0 9997 2 42766 097.4461 281.7192 0017945 071.9867 288.3321 15.19513348007354 Object C 1 42767U 17036C 17222.37221075 .00000494 00000-0 26629-4 0 9990 2 42767 097.4453 281.4185 0010509 076.8478 283.3928 15.19265677007319 LituanicaSAT 2 1 42768U 17036D 17222.60488615 .00001905 00000-0 92156-4 0 9998 2 42768 097.4459 281.7217 0018015 075.4027 284.9204 15.19678907007363 Object E 1 42769U 17036E 17222.60407426 .00000580 00000-0 30362-4 0 9999 2 42769 097.4459 281.7243 0017448 073.4724 286.8426 15.19636409007283 InflateSail 1 42770U 17036F 17222.58762688 .00208221 00000-0 59208-2 0 9992 2 42770 097.4474 282.2054 0010431 145.0512 215.1418 15.35251390007325 Object G 1 42771U 17036G 17222.40202760 .00001647 00000-0 79794-4 0 9991 2 42771 097.4461 281.5351 0017061 075.4884 284.8242 15.19836663007274 Object H 1 42772U 17036H 17222.59777476 .00001629 00000-0 78826-4 0 9998 2 42772 097.4459 281.7316 0016737 074.4946 285.8135 15.19891560007305 Object J 1 42773U 17036J 17222.46449606 .00001824 00000-0 87733-4 0 9990 2 42773 097.4459 281.6043 0016543 074.9373 285.3691 15.19947668007286 Object K 1 42774U 17036K 17222.59555367 .00001421 00000-0 69080-4 0 9995 2 42774 097.4461 281.7367 0016493 074.2911 286.0142 15.19948852007291 Aalto 1 1 42775U 17036L 17222.59276301 .00000803 00000-0 40365-4 0 9992 2 42775 097.4460 281.7397 0016083 073.1551 287.1446 15.20003587007307 URSA MAIOR 1 42776U 17036M 17222.59158015 .00000817 00000-0 40967-4 0 9997 2 42776 097.4462 281.7428 0015948 073.5821 286.7165 15.20041765007301 Max Valier Sat 1 42778U 17036P 17222.57958785 .00000960 00000-0 47095-4 0 9997 2 42778 097.4477 281.7690 0014603 079.2917 280.9962 15.20425504007292 Object Q 1 42779U 17036Q 17222.44525452 .00001770 00000-0 83832-4 0 9994 2 42779 097.4459 281.6330 0014716 084.7416 275.5498 15.20550265007267 Object R 1 42780U 17036R 17222.44447895 .00001430 00000-0 68349-4 0 9999 2 42780 097.4461 281.6317 0014565 084.3035 275.9861 15.20560726007274 Object S 1 42781U 17036S 17222.44370913 .00001849 00000-0 87313-4 0 9992 2 42781 097.4461 281.6321 0014503 084.7242 275.5647 15.20601630007263 Object T 1 42782U 17036T 17222.44282917 .00001743 00000-0 82466-4 0 9996 2 42782 097.4462 281.6346 0014360 084.6195 275.6678 15.20627659007263 Object U 1 42783U 17036U 17222.44229397 .00001025 00000-0 49818-4 0 9997 2 42783 097.4461 281.6343 0014433 085.8736 274.4149 15.20605558007270 Pegasus 1 42784U 17036V 17222.44134579 .00001093 00000-0 52862-4 0 9993 2 42784 097.4461 281.6363 0014374 086.0465 274.2413 15.20641252007272 Object W 1 42785U 17036W 17222.44116659 .00000836 00000-0 41194-4 0 9993 2 42785 097.4462 281.6371 0014331 085.9357 274.3516 15.20632928007347 Object X 1 42786U 17036X 17222.43971834 .00000414 00000-0 21977-4 0 9996 2 42786 097.4461 281.6383 0014171 086.3138 273.9718 15.20667803007343 NUDATSat 1 42787U 17036Y 17222.56949643 .00001592 00000-0 75255-4 0 9990 2 42787 097.4461 281.7702 0014033 086.1641 274.1199 15.20778460007139 SUCHAI 1 1 42788U 17036Z 17222.43846272 .00001302 00000-0 62185-4 0 9998 2 42788 097.4461 281.6392 0014027 086.3294 273.9545 15.20742704007340 SKCUBE 1 42789U 17036AA 17222.50294167 .00001206 00000-0 57770-4 0 9994 2 42789 097.4459 281.7055 0013840 086.1183 274.1634 15.20780654007272 VZLUSAT 1 1 42790U 17036AB 17222.43482463 .00001413 00000-0 67004-4 0 9997 2 42790 097.4458 281.6419 0013579 086.8236 273.4553 15.20864114007266 VENTA 1 1 42791U 17036AC 17222.49958727 .00001188 00000-0 56787-4 0 9990 2 42791 097.4459 281.7096 0013443 086.8608 273.4165 15.20883123007263 Robusta 1B 1 42792U 17036AD 17222.43329298 .00001287 00000-0 61252-4 0 9993 2 42792 097.4457 281.6437 0013414 087.4908 272.7863 15.20904196007270 Object AE 1 42793U 17036AE 17222.36118601 .00000908 00000-0 43896-4 0 9993 2 42793 097.4457 281.5866 0012485 088.3689 271.8977 15.21082241007331 D-SAT 1 42794U 17036AF 17222.35885476 .00000740 00000-0 36326-4 0 9998 2 42794 097.4454 281.5883 0011632 086.1001 274.1564 15.21149324007250 Object AG 1 42795U 17036AG 17222.54947862 .00001810 00000-0 81849-4 0 9997 2 42795 097.4510 281.7916 0008391 069.2728 290.9406 15.22189512007287 BIRD-J 1 42820U 98067MU 17222.15510132 .00008812 00000-0 13315-3 0 9993 2 42820 051.6398 129.0369 0004209 090.4255 269.7219 15.55559829005274 BIRD-G 1 42821U 98067MV 17221.96325402 .00008201 00000-0 12465-3 0 9993 2 42821 051.6399 130.0059 0004295 091.1932 268.9551 15.55505784005203 BIRD-M 1 42822U 98067MW 17222.54200886 .00008753 00000-0 13260-3 0 9993 2 42822 051.6399 127.1212 0004297 095.4290 264.7191 15.55497383005319 BIRD-B 1 42823U 98067MX 17222.15751999 .00008575 00000-0 13021-3 0 9994 2 42823 051.6400 129.0546 0007909 106.9020 253.2839 15.55448347005235 BIRD-N 1 42824U 98067MY 17222.15868067 .00008425 00000-0 12833-3 0 9994 2 42824 051.6402 129.0623 0007702 108.0715 252.1116 15.55391696005228 TechnoSat 1 42829U 17042E 17222.58825928 .00000077 00000-0 13272-4 0 9993 2 42829 097.6115 131.3139 0015073 146.8560 213.3606 14.90637754004059 Mayak 1 42830U 17042F 17222.45342221 .00000547 00000-0 61131-4 0 9990 2 42830 097.6120 131.1876 0015272 144.5511 215.6726 14.90682825004030 /EX
